Canadian, TX

3:22 PM CDT on May 23, 2017 (GMT -0500)
Hemphill County

Weather History for KHHF - March, 2013

Change the Weather History Date:

Thursday, March 21, 2013

  Actual Average (KPPA) Record (KPPA)
Temperature  
Mean Temperature 58 °F -  
Max Temperature 73 °F 61 °F 84 °F (1975)
Min Temperature 42 °F 34 °F 14 °F (1983)
Degree Days  
Heating Degree Days 6    
Growing Degree Days 8 (Base 50)    
Moisture  
Dew Point 34 °F    
Average Humidity 44    
Maximum Humidity 76    
Minimum Humidity 26    
Precipitation  
Precipitation 0.00 in - - ()
Sea Level Pressure  
Sea Level Pressure 29.62 in    
Wind  
Wind Speed 10 mph (SSE)    
Max Wind Speed 21 mph    
Max Gust Speed 26 mph    
Visibility 10 miles    
Events Rain    
Averages and records for this station are not official NWS values.
T = Trace of Precipitation, MM = Missing Value Source: NWS Daily Summary

Daily Weather History Graph

Daily Weather History Graph

Search for Another Location

Airport or City:

Trip Planner

Search our weather history database for the weather conditions in past years. The results will help you decide how hot, cold, wet, or windy it might be!

Date:

Astronomy

Mar. 21, 2013 Rise Set
Actual Time 7:43 AM CDT 7:54 PM CDT
Civil Twilight 7:17 AM CDT 8:20 PM CDT
Nautical Twilight 6:47 AM CDT 8:49 PM CDT
Astronomical Twilight 6:17 AM CDT 9:20 PM CDT
Moon 2:35 PM CDT (3/21) 3:56 AM CDT (3/21)
Length of Visible Light 13h 02m
Length of Day
12h 11m
Waxing Gibbous, 69% of the Moon is Illuminated
Mar 21
Waxing Gibbous
Mar 27
Full
Apr 2
Last Quarter
Apr 10
New
Apr 18
First Quarter

Hourly Weather History & Observations

Time (CDT) Temp. Windchill Dew Point Humidity Pressure Visibility Wind Dir Wind Speed Gust Speed Precip Events Conditions
12:15 AM 48.9 °F - 26.2 °F 41% 29.88 in 10.0 mi SSE 13.8 mph 19.6 mph N/A   Clear
12:35 AM 49.3 °F - 26.2 °F 41% 29.86 in 10.0 mi SSE 15.0 mph 19.6 mph N/A   Clear
1:15 AM 48.7 °F - 26.6 °F 42% 29.84 in 10.0 mi South 12.7 mph 18.4 mph N/A   Clear
1:35 AM 48.6 °F - 26.6 °F 42% 29.83 in 10.0 mi South 12.7 mph - N/A   Clear
1:55 AM 48.2 °F - 27.0 °F 44% 29.81 in 10.0 mi South 12.7 mph 17.3 mph N/A   Clear
2:15 AM 48.2 °F - 27.0 °F 44% 29.81 in 10.0 mi SSE 8.1 mph - N/A   Clear
2:35 AM 48.2 °F - 27.1 °F 44% 29.80 in 10.0 mi SSE 4.6 mph - N/A   Clear
2:55 AM 48.2 °F - 26.6 °F 43% 29.79 in 10.0 mi South 11.5 mph - N/A   Clear
3:15 AM 48.6 °F - 26.6 °F 42% 29.77 in 10.0 mi South 11.5 mph 16.1 mph N/A   Clear
3:35 AM 48.7 °F - 26.6 °F 42% 29.76 in 10.0 mi South 5.8 mph - N/A   Clear
3:55 AM 48.7 °F - 26.6 °F 42% 29.75 in 10.0 mi Calm Calm - N/A   Clear
4:15 AM 48.6 °F - 27.1 °F 43% 29.74 in 10.0 mi SW 3.5 mph - N/A   Clear
4:35 AM 48.2 °F - 27.5 °F 45% 29.73 in 10.0 mi SW 3.5 mph - N/A   Clear
4:55 AM 47.5 °F - 28.0 °F 47% 29.72 in 10.0 mi SSW 6.9 mph - N/A   Clear
5:15 AM 47.7 °F - 28.0 °F 47% 29.71 in 10.0 mi SW 3.5 mph - N/A   Clear
5:35 AM 47.8 °F - 28.0 °F 46% 29.70 in 10.0 mi SSW 3.5 mph - N/A   Clear
5:55 AM 47.3 °F - 28.4 °F 48% 29.69 in 10.0 mi SSW 3.5 mph - N/A   Clear
6:15 AM 47.3 °F - 28.8 °F 49% 29.69 in 10.0 mi SSW 4.6 mph - N/A   Clear
6:35 AM 46.8 °F - 29.1 °F 50% 29.69 in 10.0 mi Calm Calm - N/A   Clear
6:55 AM 46.9 °F - 29.1 °F 50% 29.69 in 10.0 mi SSW 4.6 mph - N/A   Clear
7:15 AM 46.0 °F 41.9 °F 29.3 °F 52% 29.68 in 10.0 mi SSW 8.1 mph - N/A   Clear
7:35 AM 45.5 °F 41.3 °F 29.3 °F 53% 29.68 in 10.0 mi South 8.1 mph - N/A   Clear
7:55 AM 44.6 °F 41.4 °F 29.7 °F 56% 29.68 in 10.0 mi SSW 5.8 mph - N/A   Clear
8:15 AM 45.0 °F 40.1 °F 30.2 °F 56% 29.67 in 10.0 mi SSW 9.2 mph - N/A   Clear
8:35 AM 46.0 °F 40.6 °F 30.6 °F 55% 29.65 in 10.0 mi SSW 11.5 mph 17.3 mph N/A   Clear
8:55 AM 47.1 °F - 30.9 °F 53% 29.65 in 10.0 mi SSW 9.2 mph - N/A   Clear
9:15 AM 47.8 °F - 31.3 °F 53% 29.65 in 10.0 mi SSW 11.5 mph - N/A   Clear
9:55 AM 50.0 °F - 32.0 °F 50% 29.63 in 10.0 mi South 16.1 mph 21.9 mph N/A   Clear
10:15 AM 51.3 °F - 32.0 °F 48% 29.62 in 10.0 mi South 13.8 mph 20.7 mph N/A   Clear
10:35 AM 53.2 °F - 32.4 °F 45% 29.61 in 10.0 mi South 17.3 mph 24.2 mph N/A   Clear
10:55 AM 55.6 °F - 33.4 °F 43% 29.60 in 10.0 mi South 17.3 mph - N/A   Clear
11:15 AM 58.5 °F - 34.2 °F 40% 29.60 in 10.0 mi SSW 13.8 mph - N/A   Clear
11:35 AM 58.3 °F - 34.7 °F 41% 29.60 in 10.0 mi SW 12.7 mph - N/A   Clear
11:55 AM 60.4 °F - 35.4 °F 39% 29.59 in 10.0 mi SW 8.1 mph - N/A   Clear
12:15 PM 61.3 °F - 35.2 °F 38% 29.58 in 10.0 mi South 9.2 mph - N/A   Clear
12:35 PM 62.4 °F - 34.9 °F 36% 29.56 in 10.0 mi SW 4.6 mph - N/A   Clear
12:55 PM 63.9 °F - 35.1 °F 34% 29.55 in 10.0 mi SW 6.9 mph - N/A   Clear
1:15 PM 65.8 °F - 35.6 °F 33% 29.54 in 10.0 mi South 6.9 mph - N/A   Clear
1:35 PM 66.0 °F - 35.1 °F 32% 29.53 in 10.0 mi SSW 4.6 mph - N/A   Clear
1:55 PM 67.5 °F - 35.4 °F 31% 29.52 in 10.0 mi SE 4.6 mph - N/A   Clear
2:15 PM 68.0 °F - 35.1 °F 30% 29.51 in 10.0 mi SSW 3.5 mph - N/A   Clear
2:35 PM 70.0 °F - 35.8 °F 29% 29.50 in 10.0 mi SSE 4.6 mph - N/A   Clear
2:55 PM 70.2 °F - 35.2 °F 28% 29.48 in 10.0 mi South 9.2 mph - N/A   Clear
3:15 PM 70.3 °F - 34.9 °F 27% 29.48 in 10.0 mi ESE 4.6 mph - N/A   Clear
3:35 PM 72.3 °F - 35.6 °F 26% 29.47 in 10.0 mi SE 5.8 mph - N/A   Clear
3:55 PM 72.3 °F - 35.6 °F 26% 29.46 in 10.0 mi SSE 12.7 mph 17.3 mph N/A   Clear
4:15 PM 72.7 °F - 36.5 °F 27% 29.45 in 10.0 mi SSE 8.1 mph - N/A   Clear
4:35 PM 72.7 °F - 36.7 °F 27% 29.46 in 10.0 mi SE 11.5 mph - N/A   Clear
4:55 PM 73.2 °F - 36.5 °F 26% 29.46 in 10.0 mi SE 6.9 mph - N/A   Clear
5:15 PM 72.3 °F - 36.3 °F 27% 29.45 in 10.0 mi SE 8.1 mph - N/A   Clear
5:35 PM 72.5 °F - 36.7 °F 27% 29.44 in 10.0 mi ESE 11.5 mph - N/A   Clear
5:55 PM 70.9 °F - 36.7 °F 29% 29.45 in 10.0 mi East 8.1 mph - N/A   Scattered Clouds
6:15 PM 70.0 °F - 37.4 °F 30% 29.47 in 10.0 mi NE 6.9 mph - N/A   Mostly Cloudy
6:35 PM 68.9 °F - 39.9 °F 35% 29.50 in 7.0 mi SW 10.4 mph - N/A Rain Rain
6:55 PM 68.0 °F - 40.6 °F 37% 29.48 in 10.0 mi East 8.1 mph - N/A   Scattered Clouds
7:15 PM 67.6 °F - 40.8 °F 38% 29.47 in 10.0 mi ESE 6.9 mph - N/A   Clear
7:35 PM 65.7 °F - 41.2 °F 41% 29.48 in 10.0 mi East 13.8 mph - N/A   Clear
7:55 PM 64.2 °F - 42.8 °F 46% 29.49 in 10.0 mi East 11.5 mph 16.1 mph N/A   Clear
8:15 PM 62.8 °F - 42.1 °F 47% 29.50 in 10.0 mi East 10.4 mph - N/A   Clear
8:35 PM 62.1 °F - 41.9 °F 48% 29.51 in 10.0 mi East 10.4 mph - N/A   Clear
8:55 PM 61.2 °F - 42.8 °F 51% 29.53 in 10.0 mi East 16.1 mph - N/A   Clear
9:15 PM 57.4 °F - 41.7 °F 56% 29.55 in 10.0 mi East 20.7 mph 26.5 mph N/A   Clear
9:35 PM 54.5 °F - 41.0 °F 60% 29.57 in 10.0 mi East 16.1 mph 24.2 mph N/A   Clear
9:55 PM 50.9 °F - 40.1 °F 67% 29.59 in 10.0 mi East 15.0 mph 26.5 mph N/A   Clear
10:15 PM 48.6 °F - 39.2 °F 70% 29.60 in 10.0 mi East 12.7 mph 21.9 mph N/A   Clear
10:35 PM 47.1 °F - 38.7 °F 72% 29.62 in 10.0 mi East 9.2 mph 19.6 mph N/A   Clear
10:55 PM 46.0 °F 41.4 °F 38.1 °F 74% 29.64 in 10.0 mi ENE 9.2 mph - N/A   Clear
11:15 PM 45.5 °F 41.3 °F 37.9 °F 75% 29.65 in 10.0 mi ENE 8.1 mph - N/A   Clear
11:35 PM 44.6 °F 39.2 °F 37.0 °F 75% 29.67 in 10.0 mi NE 10.4 mph - N/A   Clear
11:55 PM 42.3 °F 35.9 °F 35.2 °F 76% 29.69 in 10.0 mi ENE 11.5 mph 17.3 mph N/A   Clear